time_stamp(utc),avg(mph),gust(mph),direction(deg),12m_air_temp(f),sonic_u(cm/s),sonic_v(cm/s),sonic_w(cm/s),pressure,2m_air_temp(f),pyranometer(W/m^2)
"2020-05-30 00:03:21+00",17.2,23.2,,64.4,-225,-739,-12,1013.43,64.3,0
"2020-05-30 00:08:21+00",14.0,19.0,,64.8,-155,-581,17,1013.38,64.7,0
"2020-05-30 00:13:21+00",17.3,22.3,,65.1,-175,-737,-3,1013.29,65,0
"2020-05-30 00:18:21+00",15.0,19.0,,65.3,-236,-618,7,1013.4,65.1,0
"2020-05-30 00:23:21+00",16.7,18.7,,65.5,-330,-672,-2,1013.53,65.3,0
"2020-05-30 00:28:21+00",18.0,22.0,,65.9,-301,-736,-5,1013.48,65.6,0
"2020-05-30 00:33:21+00",16.6,19.6,,66.2,-403,-665,-9,1013.65,65.9,0
"2020-05-30 00:38:21+00",17.2,21.2,,66.5,-324,-691,-12,1013.56,66.1,0
"2020-05-30 00:43:21+00",18.7,21.7,,66.8,-266,-781,-25,1013.53,66.5,0
"2020-05-30 00:48:21+00",18.9,21.9,,66.9,-292,-785,-21,1013.47,66.6,0
"2020-05-30 00:53:21+00",13.6,17.6,,66.9,-263,-544,2,1013.47,66.6,0
"2020-05-30 00:58:21+00",15.5,19.5,,66.9,-295,-647,4,1013.47,66.7,0
"2020-05-30 01:03:21+00",18.6,21.6,,67,-217,-769,-27,1013.27,66.8,0
"2020-05-30 01:08:21+00",17.8,20.8,,66.9,-243,-747,-2,1013.33,66.7,0
"2020-05-30 01:13:21+00",16.8,22.8,,66.8,-242,-730,2,1013.33,66.7,0
"2020-05-30 01:18:21+00",13.4,18.4,,66.1,-122,-571,6,1013.24,66.1,0
"2020-05-30 01:23:21+00",15.7,19.7,,65.6,-150,-665,5,1013.23,65.7,0
"2020-05-30 01:28:21+00",14.9,19.9,,65.2,-158,-636,-2,1013.36,65.3,0
"2020-05-30 01:33:21+00",13.6,20.6,,64.8,-91,-563,40,1013.38,65,0
"2020-05-30 01:38:21+00",15.1,18.1,,64.3,-88,-646,-19,1013.31,64.5,0
"2020-05-30 01:43:21+00",13.3,17.3,,63.7,-52,-564,-31,1013.37,63.9,0
"2020-05-30 01:48:21+00",15.0,20.0,,63.2,-96,-627,-2,1013.38,63.4,0
"2020-05-30 01:53:21+00",13.0,18.0,,62.8,-97,-540,6,1013.42,63,0
"2020-05-30 01:58:21+00",16.0,19.0,,62.7,-174,-675,-13,1013.42,62.9,0
"2020-05-30 02:03:21+00",14.4,17.4,,62.6,-144,-629,7,1013.29,62.8,0
"2020-05-30 02:08:21+00",12.3,16.3,,62.6,-128,-512,7,1013.35,62.7,0
"2020-05-30 02:13:21+00",12.9,17.9,,62.6,-126,-543,6,1013.17,62.7,0
"2020-05-30 02:18:21+00",11.6,16.6,,62.7,-118,-480,19,1013.22,62.8,0
"2020-05-30 02:23:21+00",12.8,17.8,,62.7,-48,-563,-27,1013.13,62.8,0
"2020-05-30 02:28:21+00",10.9,14.9,,62.6,-26,-469,-12,1012.96,62.7,0
"2020-05-30 02:33:21+00",12.0,19.0,,62.5,-63,-527,-27,1012.94,62.6,0
"2020-05-30 02:38:21+00",15.7,19.7,,62.3,-123,-661,-18,1012.98,62.4,0
"2020-05-30 02:43:21+00",14.6,17.6,,62.4,-161,-603,3,1013.1,62.5,0
"2020-05-30 02:48:21+00",13.3,17.3,,62.6,-129,-566,2,1013.17,62.6,0
"2020-05-30 02:53:21+00",14.8,19.8,,62.7,-198,-605,3,1013.23,62.7,0
"2020-05-30 02:58:21+00",14.3,18.3,,62.9,-185,-615,-16,1013.11,62.9,0
"2020-05-30 03:03:21+00",14.7,17.7,,63.2,-232,-605,-7,1013.15,63.2,0
"2020-05-30 03:08:21+00",14.9,16.9,,63.5,-241,-601,-3,1013.17,63.5,0
"2020-05-30 03:13:21+00",15.5,17.5,,63.8,-246,-634,-18,1013.1,63.7,0
"2020-05-30 03:18:21+00",13.3,21.3,,64.1,-137,-586,3,1013.02,64,0
"2020-05-30 03:23:21+00",15.0,24.0,,63.4,-142,-663,12,1013.1,63.5,0
"2020-05-30 03:28:21+00",16.5,19.5,,62.9,-185,-677,0,1013.14,62.9,0
"2020-05-30 03:33:21+00",17.4,19.4,,62.8,-222,-716,-1,1013.13,62.8,0
"2020-05-30 03:38:21+00",15.7,17.7,,62.7,-229,-647,6,1013.3,62.8,0
"2020-05-30 03:43:21+00",15.2,18.2,,62.7,-228,-603,8,1013.17,62.7,0
"2020-05-30 03:48:21+00",15.1,18.1,,62.7,-204,-642,-1,1013.2,62.8,0
"2020-05-30 03:53:21+00",17.6,19.6,,62.7,-240,-711,-8,1013.21,62.7,0
"2020-05-30 03:58:21+00",16.1,19.1,,62.7,-231,-673,-10,1013.19,62.7,0
"2020-05-30 04:03:21+00",16.1,18.1,,62.6,-229,-658,-10,1013.15,62.6,0
"2020-05-30 04:08:21+00",16.9,19.9,,62.5,-237,-690,-11,1013.17,62.6,0
"2020-05-30 04:13:21+00",15.3,19.3,,62.5,-233,-630,-6,1013.13,62.5,0
"2020-05-30 04:18:21+00",15.2,19.2,,62.6,-216,-622,5,1013.03,62.5,0
"2020-05-30 04:23:21+00",13.1,15.1,,62.5,-183,-539,4,1013.01,62.5,0
"2020-05-30 04:28:21+00",13.5,16.5,,62.5,-188,-557,-1,1012.97,62.5,0
"2020-05-30 04:33:21+00",12.5,14.5,,62.6,-186,-499,6,1012.94,62.6,0
"2020-05-30 04:38:21+00",14.9,16.9,,62.9,-272,-590,-5,1012.93,62.8,0
"2020-05-30 04:43:21+00",15.1,17.1,,63.4,-375,-570,16,1012.87,63.3,0
"2020-05-30 04:48:21+00",15.0,19.0,,63.3,-372,-589,5,1012.79,63.3,0
"2020-05-30 04:53:21+00",13.3,15.3,,63.3,-270,-521,4,1012.73,63.3,0
"2020-05-30 04:58:21+00",14.6,17.6,,63.2,-284,-572,-4,1012.66,63.2,0
"2020-05-30 05:03:21+00",14.5,17.5,,63.2,-294,-581,3,1012.62,63.1,0
"2020-05-30 05:08:21+00",14.0,17.0,,63.3,-325,-534,12,1012.57,63.2,0
"2020-05-30 05:13:21+00",8.8,12.8,,63.2,-67,-346,-2,1012.53,63.2,0
"2020-05-30 05:18:21+00",9.7,12.7,,62.8,-85,-413,3,1012.58,62.7,0
"2020-05-30 05:23:21+00",13.1,16.1,,62.7,-211,-522,-6,1012.68,62.6,0
"2020-05-30 05:28:21+00",13.9,15.9,,62.6,-196,-571,-5,1012.54,62.5,0
"2020-05-30 05:33:21+00",12.9,15.9,,62.6,-140,-547,-10,1012.46,62.5,0
"2020-05-30 05:38:21+00",14.5,18.5,,62.6,-176,-603,-5,1012.44,62.5,0
"2020-05-30 05:43:21+00",12.8,15.8,,62.5,-152,-522,-10,1012.41,62.4,0
"2020-05-30 05:48:21+00",14.4,16.4,,62.5,-238,-584,-11,1012.51,62.4,0
"2020-05-30 05:53:21+00",16.1,18.1,,62.4,-262,-641,-3,1012.59,62.3,0
"2020-05-30 05:58:21+00",14.3,16.3,,62.4,-171,-582,-4,1012.4,62.3,0
"2020-05-30 06:03:21+00",12.6,15.6,,62.4,-180,-512,4,1012.55,62.3,0
"2020-05-30 06:08:21+00",11.6,15.6,,62.5,-138,-494,10,1012.43,62.4,0
"2020-05-30 06:13:21+00",11.6,14.6,,62.5,-107,-482,2,1012.47,62.4,0
"2020-05-30 06:18:21+00",12.4,14.4,,62.3,-51,-516,-19,1012.33,62.2,0
"2020-05-30 06:23:21+00",14.2,19.2,,62,-127,-577,21,1012.27,61.9,0
"2020-05-30 06:28:21+00",16.6,21.6,,61.8,-134,-694,-14,1012.21,61.8,0
"2020-05-30 06:33:21+00",15.0,20.0,,61.8,-135,-641,11,1012.16,61.7,0
"2020-05-30 06:38:21+00",13.4,17.4,,61.7,-87,-552,5,1012.17,61.6,0
"2020-05-30 06:43:21+00",14.1,19.1,,61.6,-159,-583,-3,1012.12,61.6,0
"2020-05-30 06:48:21+00",16.7,18.7,,61.6,-206,-691,-6,1012.16,61.6,0
"2020-05-30 06:53:21+00",11.9,14.9,,61.7,-123,-491,4,1012.1,61.6,0
"2020-05-30 06:58:21+00",14.9,17.9,,61.7,-217,-610,-4,1012.08,61.7,0
"2020-05-30 07:03:21+00",12.1,16.1,,61.8,-189,-492,4,1011.95,61.8,0
"2020-05-30 07:08:21+00",13.3,16.3,,61.9,-217,-523,6,1011.83,61.9,0
"2020-05-30 07:13:21+00",11.9,14.9,,61.9,-206,-482,10,1011.87,61.9,0
"2020-05-30 07:18:21+00",12.6,14.6,,62,-189,-507,2,1011.73,62,0
"2020-05-30 07:23:21+00",11.8,13.8,,62.1,-205,-487,-5,1011.75,62.1,0
"2020-05-30 07:28:21+00",10.1,12.1,,62.3,-124,-416,2,1011.71,62.2,0
"2020-05-30 07:33:21+00",11.4,13.4,,62.3,-140,-466,-2,1011.59,62.2,0
"2020-05-30 07:38:21+00",12.4,15.4,,62.4,-157,-510,8,1011.48,62.3,0
"2020-05-30 07:43:21+00",10.6,12.6,,62.4,-213,-423,0,1011.53,62.4,0
"2020-05-30 07:48:21+00",10.2,11.2,,62.5,-206,-400,-9,1011.49,62.5,0
"2020-05-30 07:53:21+00",9.2,11.2,,62.6,-153,-370,-4,1011.53,62.6,0
"2020-05-30 07:58:21+00",11.7,13.7,,62.7,-215,-460,-3,1011.65,62.7,0
"2020-05-30 08:03:21+00",11.2,12.2,,62.8,-196,-445,-5,1011.55,62.7,0
"2020-05-30 08:08:21+00",10.5,12.5,,62.8,-216,-407,6,1011.63,62.7,0
"2020-05-30 08:13:21+00",11.2,14.2,,63.1,-252,-443,8,1011.56,62.9,0
"2020-05-30 08:18:21+00",11.9,13.9,,63.2,-235,-466,11,1011.48,63.1,0
"2020-05-30 08:23:21+00",12.1,15.1,,63.5,-312,-435,24,1011.46,63.3,0
"2020-05-30 08:28:21+00",13.6,16.6,,63.5,-384,-472,20,1011.46,63.4,0
"2020-05-30 08:33:21+00",14.6,16.6,,63.4,-420,-483,13,1011.47,63.4,0
"2020-05-30 08:38:21+00",15.2,17.2,,63.2,-450,-482,13,1011.5,63.2,0
"2020-05-30 08:43:21+00",14.7,16.7,,63.2,-414,-503,9,1011.41,63.2,0
"2020-05-30 08:48:21+00",13.4,15.4,,63.1,-377,-475,26,1011.49,63.1,0
"2020-05-30 08:53:21+00",14.3,16.3,,62.9,-410,-478,29,1011.6,63,0
"2020-05-30 08:58:21+00",12.7,14.7,,62.8,-338,-471,13,1011.63,62.8,0
"2020-05-30 09:03:21+00",11.1,13.1,,62.7,-278,-427,25,1011.66,62.7,0
"2020-05-30 09:08:21+00",11.1,13.1,,62.6,-283,-418,13,1011.63,62.6,0
"2020-05-30 09:13:21+00",11.4,13.4,,62.6,-277,-431,7,1011.74,62.6,0
"2020-05-30 09:18:21+00",11.0,13.0,,62.6,-205,-439,-1,1011.62,62.5,0
"2020-05-30 09:23:21+00",11.2,13.2,,62.7,-268,-440,1,1011.68,62.6,0
"2020-05-30 09:28:21+00",10.6,12.6,,62.7,-296,-387,7,1011.88,62.6,0
"2020-05-30 09:33:21+00",9.9,10.9,,62.8,-327,-272,17,1011.96,62.7,0
"2020-05-30 09:38:21+00",11.0,13.0,,63,-370,-306,16,1012.01,62.9,0
"2020-05-30 09:43:21+00",10.9,12.9,,63.1,-402,-290,11,1012.05,63,0
"2020-05-30 09:48:21+00",10.1,12.1,,63.4,-353,-274,14,1011.96,63.2,0
"2020-05-30 09:53:21+00",9.4,11.4,,63.6,-311,-267,7,1011.89,63.4,0
"2020-05-30 09:58:21+00",10.4,12.4,,63.7,-324,-311,6,1012.03,63.5,0
"2020-05-30 10:03:21+00",9.0,11.0,,63.8,-261,-286,14,1012.02,63.6,0
"2020-05-30 10:08:21+00",8.6,9.6,,63.8,-272,-247,16,1012.13,63.7,0
"2020-05-30 10:13:21+00",7.5,7.5,,63.8,-249,-208,17,1012.16,63.8,0
"2020-05-30 10:18:21+00",7.3,8.3,,63.9,-270,-192,10,1012.16,63.7,0
"2020-05-30 10:23:21+00",5.9,6.9,,64.1,-246,-132,3,1012.24,63.8,0
"2020-05-30 10:28:21+00",6.5,7.5,,64.8,-257,-82,5,1012.28,64,0
"2020-05-30 10:33:21+00",5.3,6.3,,65.4,-208,-67,2,1012.23,64.4,0
"2020-05-30 10:38:21+00",6.1,7.1,,66.5,-269,10,9,1012.27,64.9,0
"2020-05-30 10:43:21+00",8.1,9.1,,67.5,-360,59,13,1012.31,65.9,0
"2020-05-30 10:48:21+00",10.4,12.4,,67.7,-464,124,11,1012.3,66.6,0
"2020-05-30 10:53:21+00",11.1,12.1,,67.9,-492,127,21,1012.41,67,0
"2020-05-30 10:58:21+00",11.1,12.1,,68.3,-482,139,17,1012.36,67.3,0
"2020-05-30 11:03:21+00",10.1,12.1,,68.5,-433,147,19,1012.36,67.5,0
"2020-05-30 11:08:21+00",9.6,10.6,,68.8,-413,150,18,1012.48,67.9,0
"2020-05-30 11:13:21+00",9.4,10.4,,69.1,-391,186,20,1012.45,68.2,0
"2020-05-30 11:18:21+00",12.3,15.3,,69.5,-489,272,21,1012.48,68,0
"2020-05-30 11:23:21+00",12.4,14.4,,69.9,-490,253,9,1012.38,68.1,0
"2020-05-30 11:28:21+00",12.0,13.0,,70,-467,260,38,1012.45,68,0
"2020-05-30 11:33:21+00",14.3,16.3,,70,-545,339,23,1012.46,67.9,0
"2020-05-30 11:38:21+00",12.8,14.8,,70.2,-482,322,24,1012.54,68.9,0
"2020-05-30 11:43:21+00",13.6,15.6,,70.2,-505,348,11,1012.52,69.7,0
"2020-05-30 11:48:21+00",11.8,13.8,,70.1,-438,282,20,1012.5,69.9,0
"2020-05-30 11:53:21+00",13.7,15.7,,70.5,-492,352,21,1012.59,70.1,0
"2020-05-30 11:58:21+00",12.4,14.4,,70.7,-477,304,31,1012.72,70.6,0
"2020-05-30 12:03:21+00",13.3,15.3,,70.7,-473,371,38,1012.66,71,0
"2020-05-30 12:08:21+00",14.9,17.9,,70.9,-557,363,47,1012.73,71.5,0
"2020-05-30 12:13:21+00",15.7,17.7,,71.1,-585,404,40,1012.64,72.1,0
"2020-05-30 12:18:21+00",10.6,12.6,,71.2,-401,267,27,1012.58,72.6,0
"2020-05-30 12:23:21+00",14.2,16.2,,71.2,-531,377,29,1012.56,72.8,0
"2020-05-30 12:28:21+00",12.9,14.9,,71.3,-454,364,27,1012.61,72.8,0
"2020-05-30 12:33:21+00",14.1,16.1,,71.3,-464,442,34,1012.59,72.6,0
"2020-05-30 12:38:21+00",15.1,16.1,,71.3,-507,452,36,1012.61,72.4,0
"2020-05-30 12:43:21+00",14.2,15.2,,71.3,-462,433,23,1012.74,72.5,0
"2020-05-30 12:48:21+00",14.9,15.9,,71.5,-561,392,35,1012.8,72.8,0
"2020-05-30 12:53:21+00",15.8,16.8,,71.4,-610,385,39,1012.79,73,0
"2020-05-30 12:58:21+00",12.9,14.9,,71.5,-431,369,33,1012.88,73.1,0
"2020-05-30 13:03:21+00",13.4,15.4,,71.6,-457,398,30,1012.71,73.2,0
"2020-05-30 13:08:21+00",11.6,13.6,,71.8,-402,319,21,1012.75,73.5,0
"2020-05-30 13:13:21+00",11.1,12.1,,71.9,-415,271,12,1012.75,73.8,0
"2020-05-30 13:18:21+00",12.4,14.4,,72.2,-481,296,13,1012.74,74.3,0
"2020-05-30 13:23:21+00",10.1,12.1,,72.5,-374,249,27,1012.6,74.7,0
"2020-05-30 13:28:21+00",8.8,9.8,,72.6,-321,228,25,1012.51,75.2,0
"2020-05-30 13:33:21+00",9.2,11.2,,72.6,-344,231,15,1012.55,75.1,0
"2020-05-30 13:38:21+00",9.3,11.3,,72.8,-389,157,4,1012.57,75.3,0
"2020-05-30 13:43:21+00",10.8,11.8,,73,-400,268,13,1012.41,75.8,0
"2020-05-30 13:48:21+00",11.0,14.0,,73.5,-455,225,47,1012.46,76.2,0
"2020-05-30 13:53:21+00",10.7,12.7,,73.5,-440,199,26,1012.55,76.4,0
"2020-05-30 13:58:21+00",12.0,13.0,,73.5,-477,278,18,1012.57,76.4,0
"2020-05-30 14:03:21+00",10.4,11.4,,73.7,-430,201,32,1012.62,76.4,0
"2020-05-30 14:08:21+00",9.6,11.6,,74.1,-378,223,65,1012.66,76.8,0
"2020-05-30 14:13:21+00",12.3,13.3,,74.1,-436,335,12,1012.53,76.9,0
"2020-05-30 14:18:21+00",8.6,9.6,,74.1,-370,135,27,1012.55,76.8,0
"2020-05-30 14:23:21+00",8.2,9.2,,74.5,-330,167,49,1012.46,77.3,0
"2020-05-30 14:28:21+00",9.2,11.2,,74.2,-362,183,30,1012.53,77.4,0
"2020-05-30 14:33:21+00",9.2,11.2,,74.5,-375,197,34,1012.64,77.6,0
"2020-05-30 14:38:21+00",13.7,15.7,,74.7,-535,315,24,1012.63,77.8,0
"2020-05-30 14:43:21+00",11.5,13.5,,74.8,-452,235,24,1012.62,77.7,0
"2020-05-30 14:48:21+00",11.7,12.7,,74.7,-438,304,14,1012.71,77.4,0
"2020-05-30 14:53:21+00",12.8,14.8,,74.6,-513,276,27,1012.68,77.1,0
"2020-05-30 14:58:21+00",12.3,15.3,,74.8,-531,179,11,1012.69,77.2,0
"2020-05-30 15:03:21+00",13.0,15.0,,74.7,-519,276,30,1012.65,77.3,0
"2020-05-30 15:08:21+00",10.2,12.2,,74.7,-414,211,5,1012.64,77.5,0
"2020-05-30 15:13:21+00",11.0,13.0,,74.7,-398,298,33,1012.62,77.2,0
"2020-05-30 15:18:21+00",8.9,11.9,,74.8,-336,230,65,1012.57,77.3,0
"2020-05-30 15:23:21+00",9.0,11.0,,75.1,-382,136,34,1012.59,77.7,0
"2020-05-30 15:28:21+00",9.9,12.9,,74.7,-410,209,41,1012.44,77.8,0
"2020-05-30 15:33:21+00",11.6,13.6,,74.4,-511,90,-3,1012.41,77.8,0
"2020-05-30 15:38:21+00",11.2,12.2,,74.4,-488,134,25,1012.39,78.1,0
"2020-05-30 15:43:21+00",10.6,12.6,,74.3,-455,131,2,1012.33,78.4,0
"2020-05-30 15:48:21+00",11.2,12.2,,74.6,-490,107,11,1012.34,78.7,0
"2020-05-30 15:53:21+00",11.3,13.3,,74.9,-496,89,31,1012.3,79.1,0
"2020-05-30 15:58:21+00",9.5,11.5,,74.8,-412,102,24,1012.3,79.1,0
"2020-05-30 16:03:21+00",9.2,10.2,,74.8,-406,94,7,1012.28,79.5,0
"2020-05-30 16:08:21+00",10.8,11.8,,75,-479,91,-2,1012.34,79.8,0
"2020-05-30 16:13:21+00",9.2,11.2,,75.2,-406,106,11,1012.2,80,0
"2020-05-30 16:18:21+00",9.2,10.2,,75.2,-400,100,-10,1012.29,80.1,0
"2020-05-30 16:23:21+00",9.1,11.1,,75.6,-410,69,17,1012.17,80.5,0
"2020-05-30 16:28:21+00",8.9,9.9,,75.7,-397,-7,16,1012.15,80.8,0
"2020-05-30 16:33:21+00",10.7,12.7,,75.6,-470,91,22,1012.04,81.1,0
"2020-05-30 16:38:21+00",11.4,13.4,,75.9,-496,174,0,1012.09,80.9,0
"2020-05-30 16:43:21+00",11.2,12.2,,76,-485,142,54,1012.03,80.8,0
"2020-05-30 16:48:21+00",10.2,11.2,,76.2,-424,171,49,1012,80.6,0
"2020-05-30 16:53:21+00",9.6,11.6,,76.8,-394,170,72,1011.93,80.8,0
"2020-05-30 16:58:21+00",10.0,12.0,,76.7,-426,121,49,1011.86,81,0
"2020-05-30 17:03:21+00",11.4,12.4,,76.7,-502,122,20,1011.78,81,0
"2020-05-30 17:08:21+00",9.7,11.7,,76.9,-427,94,35,1011.76,81,0
"2020-05-30 17:13:21+00",9.2,11.2,,77,-400,94,50,1011.67,81.2,0
"2020-05-30 17:18:21+00",12.9,13.9,,77.1,-548,223,-4,1011.64,81.2,0
"2020-05-30 17:23:21+00",10.5,11.5,,77.3,-465,96,24,1011.63,81.2,0
"2020-05-30 17:28:21+00",10.4,13.4,,77.5,-441,148,50,1011.61,81.4,0
"2020-05-30 17:33:21+00",9.2,11.2,,77.9,-372,158,72,1011.59,81.5,0
"2020-05-30 17:38:21+00",10.2,11.2,,78,-400,208,85,1011.46,81.7,0
"2020-05-30 17:43:21+00",10.7,11.7,,77.9,-462,138,-1,1011.46,81.6,0
"2020-05-30 17:48:21+00",11.0,12.0,,77.8,-476,136,3,1011.58,81.8,0
"2020-05-30 17:53:21+00",8.6,10.6,,77.8,-371,58,34,1011.58,82,0
"2020-05-30 17:58:21+00",8.1,9.1,,77.9,-357,8,21,1011.61,82.6,0
"2020-05-30 18:03:21+00",8.4,9.4,,78.3,-354,-87,43,1011.61,83.4,0
"2020-05-30 18:08:21+00",6.5,7.5,,77.2,-65,-276,5,1011.53,82.1,0
"2020-05-30 18:13:21+00",11.3,14.3,,76.7,33,-476,-36,1011.52,80,0
"2020-05-30 18:18:21+00",8.7,11.7,,77,29,-344,11,1011.43,79.2,0
"2020-05-30 18:23:21+00",6.3,8.3,,77.3,-15,-248,-9,1011.47,79.4,0
"2020-05-30 18:28:21+00",13.4,18.4,,76.1,24,-590,-15,1011.41,78.3,0
"2020-05-30 18:33:21+00",11.8,15.8,,75.3,19,-497,-1,1011.56,77.4,0
"2020-05-30 18:38:21+00",10.6,13.6,,75.6,19,-458,-4,1011.42,77.5,0
"2020-05-30 18:43:21+00",13.7,16.7,,75.1,-9,-583,-23,1011.42,77.1,0
"2020-05-30 18:48:21+00",13.0,17.0,,75.1,32,-546,-7,1011.43,77.1,0
"2020-05-30 18:53:21+00",14.0,17.0,,75.6,-128,-584,2,1011.49,77.7,0
"2020-05-30 18:58:21+00",10.8,14.8,,75.9,-94,-449,36,1011.42,78.1,0
"2020-05-30 19:03:21+00",9.3,13.3,,76.1,-49,-385,34,1011.34,78.3,0
"2020-05-30 19:08:21+00",10.0,15.0,,76.1,-28,-420,9,1011.32,78.2,0
"2020-05-30 19:13:21+00",11.3,15.3,,75.3,-29,-485,-17,1011.25,77.4,0
"2020-05-30 19:18:21+00",9.9,11.9,,75.3,-89,-423,25,1011.31,77.4,0
"2020-05-30 19:23:21+00",11.0,14.0,,74.8,-11,-440,-18,1011.23,77,0
"2020-05-30 19:28:21+00",8.3,11.3,,75,-21,-369,-1,1011.32,76.9,0
"2020-05-30 19:33:21+00",12.9,15.9,,73.9,45,-565,-25,1011.28,75.7,0
"2020-05-30 19:38:21+00",11.6,14.6,,72.5,87,-486,-25,1011.24,74.6,0
"2020-05-30 19:43:21+00",11.6,14.6,,72.2,58,-486,-6,1011.27,74.2,0
"2020-05-30 19:48:21+00",10.5,13.5,,71.8,42,-425,-6,1011.22,73.8,0
"2020-05-30 19:53:21+00",7.4,10.4,,72.3,13,-312,27,1011.17,74,0
"2020-05-30 19:58:21+00",9.5,12.5,,72.7,30,-402,-9,1011.13,74.3,0
"2020-05-30 20:03:21+00",9.5,13.5,,72.7,49,-421,-7,1010.99,74.5,0
"2020-05-30 20:08:21+00",11.2,13.2,,71.6,58,-475,-8,1011.05,73.6,0
"2020-05-30 20:13:21+00",8.9,11.9,,71.7,28,-376,-15,1011.02,73.5,0
"2020-05-30 20:18:21+00",9.1,11.1,,72.3,32,-386,-2,1010.98,74,0
"2020-05-30 20:23:21+00",11.3,14.3,,71.5,22,-487,-37,1011.07,73.3,0
"2020-05-30 20:28:21+00",9.1,12.1,,71.4,34,-390,17,1011.04,73.2,0
"2020-05-30 20:33:21+00",7.9,11.9,,71.6,4,-324,22,1011.03,73.1,0
"2020-05-30 20:38:21+00",10.2,12.2,,72.1,-18,-426,-15,1011.09,73.6,0
"2020-05-30 20:43:21+00",7.0,9.0,,72.4,-9,-297,12,1011.13,73.9,0
"2020-05-30 20:48:21+00",10.5,14.5,,72.8,-83,-433,-1,1011.09,74.6,0
"2020-05-30 20:53:21+00",7.5,10.5,,73.2,-3,-305,-7,1011.04,74.7,0
"2020-05-30 20:58:21+00",8.0,9.0,,73.5,-71,-335,-4,1011.02,75.1,0
"2020-05-30 21:03:21+00",6.0,9.0,,73.9,-37,-247,7,1011.08,75.7,0
"2020-05-30 21:08:21+00",8.0,9.0,,74.3,-90,-338,6,1011.02,76.1,0
"2020-05-30 21:13:21+00",7.0,10.0,,74.7,-93,-275,22,1011.15,76.6,0
"2020-05-30 21:18:21+00",7.4,9.4,,75,-25,-311,-14,1011.1,76.5,0
"2020-05-30 21:23:21+00",7.5,10.5,,75.6,-78,-326,19,1011.02,77,0
"2020-05-30 21:28:21+00",5.2,8.2,,75.9,0,-195,10,1011.08,77.6,0
"2020-05-30 21:33:21+00",5.0,7.0,,75.6,39,-209,2,1011.11,77.1,0
"2020-05-30 21:38:21+00",6.6,7.6,,75.1,-36,-271,-5,1011.13,76.2,0
"2020-05-30 21:43:21+00",4.4,6.4,,74.8,21,-183,1,1011.11,76,0
"2020-05-30 21:48:21+00",4.1,6.1,,74.9,6,-163,8,1011.05,76,0
"2020-05-30 21:53:21+00",6.4,7.4,,75.4,47,-256,-1,1011.01,76.5,0
"2020-05-30 21:58:21+00",5.0,7.0,,76.1,-39,-195,-4,1011.02,77.1,0
"2020-05-30 22:03:21+00",4.0,6.0,,76.6,-6,-165,3,1011,77.6,0
"2020-05-30 22:08:21+00",6.3,8.3,,76.4,-58,-266,-24,1011.02,77.6,0
"2020-05-30 22:13:21+00",4.6,5.6,,76.3,31,-184,-1,1011.02,77,0
"2020-05-30 22:18:21+00",9.8,11.8,,77.7,-436,144,31,1011.03,78.4,0
"2020-05-30 22:23:21+00",14.4,17.4,,78.8,-590,281,46,1011.01,79.8,0
"2020-05-30 22:28:21+00",14.5,16.5,,78.7,-607,272,16,1011.06,80.4,0
"2020-05-30 22:33:21+00",12.2,13.2,,79.1,-502,243,24,1011.11,80.7,0
"2020-05-30 22:38:21+00",13.5,15.5,,79,-581,235,20,1011.12,80.9,0
"2020-05-30 22:43:21+00",14.5,16.5,,78.9,-604,238,29,1011.15,80.8,0
"2020-05-30 22:48:21+00",16.2,18.2,,78.7,-688,244,19,1011.25,80.3,0
"2020-05-30 22:53:21+00",15.6,17.6,,78.4,-678,247,28,1011.27,80,0
"2020-05-30 22:58:21+00",14.5,16.5,,78.3,-624,215,37,1011.4,79.7,0
"2020-05-30 23:03:21+00",14.9,15.9,,77.9,-655,192,18,1011.42,79.3,0
"2020-05-30 23:08:21+00",14.6,15.6,,77.9,-652,178,27,1011.48,78.8,0
"2020-05-30 23:13:21+00",12.1,14.1,,77.6,-523,142,15,1011.48,78.5,0
"2020-05-30 23:18:21+00",11.9,14.9,,77.5,-517,152,24,1011.48,78.1,0
"2020-05-30 23:23:21+00",12.4,13.4,,77.2,-550,115,20,1011.57,77.7,0
"2020-05-30 23:28:21+00",12.3,14.3,,77.1,-531,157,24,1011.52,77.2,0
"2020-05-30 23:33:21+00",11.4,13.4,,77.5,-499,108,16,1011.59,76.9,0
"2020-05-30 23:38:21+00",10.7,11.7,,77.4,-476,116,16,1011.61,76.7,0
"2020-05-30 23:43:21+00",10.7,11.7,,77,-472,98,15,1011.64,76.4,0
"2020-05-30 23:48:21+00",9.8,10.8,,76.6,-429,89,12,1011.66,75.9,0
"2020-05-30 23:53:21+00",10.4,11.4,,76.3,-467,36,6,1011.69,75.4,0
"2020-05-30 23:58:21+00",10.5,11.5,,76.5,-470,46,11,1011.89,75,0
